TimeEST,TemperatureF,Dew PointF,Humidity,Sea Level PressureIn,VisibilityMPH,Wind Direction,Wind SpeedMPH,Gust SpeedMPH,PrecipitationIn,Events,Conditions,WindDirDegrees,DateUTC
12:53 AM,19.0,14.0,81,30.26,10.0,Calm,Calm,-,N/A,,Clear,0,2013-02-18 05:53:00
1:53 AM,19.0,14.0,81,30.26,10.0,Calm,Calm,-,N/A,,Clear,0,2013-02-18 06:53:00
2:53 AM,19.0,15.1,85,30.25,10.0,Calm,Calm,-,N/A,,Clear,0,2013-02-18 07:53:00
3:53 AM,18.0,15.1,88,30.22,10.0,Calm,Calm,-,N/A,,Clear,0,2013-02-18 08:53:00
4:53 AM,18.0,15.1,88,30.21,10.0,Calm,Calm,-,N/A,,Clear,0,2013-02-18 09:53:00
5:53 AM,19.0,15.1,85,30.20,10.0,Calm,Calm,-,N/A,,Clear,0,2013-02-18 10:53:00
6:53 AM,21.9,14.0,72,30.18,10.0,Calm,Calm,-,N/A,,Clear,0,2013-02-18 11:53:00
7:53 AM,24.1,15.1,69,30.17,10.0,WSW,3.5,-,N/A,,Clear,240,2013-02-18 12:53:00
8:53 AM,30.2,17.6,60,30.14,10.0,SSW,5.8,-,N/A,,Clear,200,2013-02-18 13:53:00
9:53 AM,37.0,19.0,48,30.13,10.0,SSW,10.4,-,N/A,,Clear,200,2013-02-18 14:53:00
10:53 AM,43.0,21.9,43,30.10,10.0,SSW,11.5,-,N/A,,Clear,200,2013-02-18 15:53:00
11:53 AM,51.1,27.0,39,30.06,10.0,South,10.4,-,N/A,,Clear,190,2013-02-18 16:53:00
12:53 PM,55.0,30.9,40,30.03,10.0,SSW,11.5,-,N/A,,Clear,200,2013-02-18 17:53:00
1:53 PM,57.0,28.9,34,29.99,10.0,SSW,17.3,29.9,N/A,,Clear,210,2013-02-18 18:53:00
2:53 PM,59.0,30.0,33,29.97,10.0,SSW,13.8,21.9,N/A,,Clear,200,2013-02-18 19:53:00
3:53 PM,61.0,33.1,35,29.93,10.0,South,21.9,28.8,N/A,,Clear,180,2013-02-18 20:53:00
4:53 PM,60.1,33.1,36,29.89,10.0,South,20.7,25.3,N/A,,Clear,190,2013-02-18 21:53:00
5:53 PM,57.0,32.0,39,29.88,10.0,South,15.0,25.3,N/A,,Mostly Cloudy,190,2013-02-18 22:53:00
6:53 PM,55.9,32.0,40,29.87,10.0,South,15.0,24.2,N/A,,Mostly Cloudy,190,2013-02-18 23:53:00
7:53 PM,55.0,30.9,40,29.86,10.0,South,13.8,-,0.00,Rain,Light Rain,180,2013-02-19 00:53:00
8:53 PM,54.0,28.9,38,29.83,10.0,South,15.0,21.9,0.00,,Overcast,190,2013-02-19 01:53:00
9:53 PM,54.0,28.0,37,29.80,10.0,SSW,23.0,29.9,0.00,,Overcast,200,2013-02-19 02:53:00
10:53 PM,48.9,39.0,69,29.81,7.0,SSW,35.7,48.3,0.01,Rain,Light Rain,210,2013-02-19 03:53:00
11:53 PM,46.9,39.9,77,29.79,10.0,South,13.8,-,0.02,Rain,Light Rain,190,2013-02-19 04:53:00